Regional Weather Roundup
Issued by NWS

Home | Current Version | Previous Version | Graphics & Text | Print | Product List | Glossary On
Versions: 1 2 3 4 5 6 7 8 9 10 11 12 13 14 15 16 17 18 19 20 21 22 23 24 25 26 27 28 29 30 31 32 33 34 35 36 37 38 39 40 41 42 43 44 45 46 47 48 49 50
000
ASUS43 KBIS 311210
RWRND

NORTH DAKOTA REGIONAL WEATHER ROUNDUP
NATIONAL WEATHER SERVICE BISMARCK ND
700 AM CDT WED AUG 31 2016

NOTE: "FAIR" INDICATES FEW OR NO CLOUDS BELOW 12,000 FEET WITH NO
SIGNIFICANT WEATHER AND/OR OBSTRUCTIONS TO VISIBILITY.


NDZ001>003-009>011-017-311300-
NORTHWEST NORTH DAKOTA

CITY           SKY/WX    TMP DP  RH WIND       PRES   REMARKS
WILLISTON      PTCLDY    66  54  65 SE8       30.10S
6HR MIN TEMP:  66; 6HR MAX TEMP:  72;

MINOT          PTCLDY    59  54  83 E10       30.19R
MINOT AFB      CLEAR     58  53  85 E13       30.18S
$$

NDZ018>021-031>035-040>046-311300-
SOUTHWEST NORTH DAKOTA

CITY           SKY/WX    TMP DP  RH WIND       PRES   REMARKS
BISMARCK       CLEAR     63  58  83 SE8       30.19R
6HR MIN TEMP:  61; 6HR MAX TEMP:  66;

DICKINSON      CLEAR     54  54 100 E9        30.13R
GARRISON         N/A     62  59  90 E9        30.17R
6HR MIN TEMP:  62; 6HR MAX TEMP:  65;

HETTINGER ARPT CLEAR     57  55  93 E3        30.15R
$$

NDZ004>008-012>016-024-026-027-054-311300-
NORTHEAST NORTH DAKOTA

CITY           SKY/WX    TMP DP  RH WIND       PRES   REMARKS
GRAND FORKS    MOCLDY    51  48  89 NW3       30.25R
GRND FRKS AFB  CLOUDY    51  47  88 N7        30.26R
DEVILS LAKE    CLEAR     52  47  83 E7        30.27R
$$

NDZ022-023-025-028>030-036>039-047>053-311300-
SOUTHEAST NORTH DAKOTA

CITY           SKY/WX    TMP DP  RH WIND       PRES   REMARKS
FARGO          CLEAR     53  51  93 CALM      30.23R
6HR MIN TEMP:  52; 6HR MAX TEMP:  59;

JAMESTOWN      CLOUDY    60  56  86 CALM      30.25R
$$




USA.gov is the U.S. government's official web portal to all federal, state and local government web resources and services.